2024/02/04 00:00:00,22.1, 0.0
2024/02/04 00:10:00,22.1,-0.1
2024/02/04 00:20:00,22.1, 0.2
2024/02/04 00:30:00,22.1,-0.2
2024/02/04 00:40:00,22.2,-0.3
2024/02/04 00:50:00,22.2, 0.0
2024/02/04 01:00:00,22.2,-0.3
2024/02/04 01:10:00,22.2, 0.3
2024/02/04 01:20:00,22.2,-0.3
2024/02/04 01:30:00,22.2,-0.1
2024/02/04 01:40:00,22.2, 0.0
2024/02/04 01:50:00,22.2,-0.1
2024/02/04 02:00:00,22.2,-0.2
2024/02/04 02:10:00,22.2,-0.4
2024/02/04 02:20:00,22.2,-0.2
2024/02/04 02:30:00,22.1, 0.0
2024/02/04 02:40:00,22.1, 0.1
2024/02/04 02:50:00,22.2, 0.0
2024/02/04 03:00:00,22.2, 0.0
2024/02/04 03:10:00,22.3,-0.2
2024/02/04 03:20:00,22.4,-0.2
2024/02/04 03:30:00,22.4, 0.1
2024/02/04 03:40:00,22.4,-0.3
2024/02/04 03:50:00,22.4,-0.2
2024/02/04 04:00:00,22.4, 0.1
2024/02/04 04:10:00,22.4,-0.1
2024/02/04 04:20:00,22.3,-0.2
2024/02/04 04:30:00,22.3,-0.2
2024/02/04 04:40:00,22.3,-0.2
2024/02/04 04:50:00,22.3,-0.1
2024/02/04 05:00:00,22.3,-0.5
2024/02/04 05:10:00,22.3,-0.4
2024/02/04 05:20:00,22.3,-0.2
2024/02/04 05:30:00,22.3,-0.2
2024/02/04 05:40:00,22.5,-0.4
2024/02/04 05:50:00,22.5,-0.4
2024/02/04 06:00:00,22.5,-0.3
2024/02/04 06:10:00,22.6,-0.2
2024/02/04 06:20:00,22.5,-0.3
2024/02/04 06:30:00,22.5,-0.1
2024/02/04 06:40:00,22.5,-0.2
2024/02/04 06:50:00,22.9,-0.1
2024/02/04 07:00:00,23.0, 0.0
2024/02/04 07:10:00,23.0,-0.1
2024/02/04 07:20:00,23.0, 0.3
2024/02/04 07:30:00,23.0, 0.2
2024/02/04 07:40:00,23.0, 0.3
2024/02/04 07:50:00,23.0, 0.6
2024/02/04 08:00:00,23.1, 0.4
2024/02/04 08:10:00,23.1, 0.8
2024/02/04 08:20:00,23.2, 0.8
2024/02/04 08:30:00,23.2, 1.1
2024/02/04 08:40:00,23.3, 1.4
2024/02/04 08:50:00,23.4, 1.6
2024/02/04 09:00:00,23.3, 2.4
2024/02/04 09:10:00,23.2, 2.7
2024/02/04 09:20:00,23.3, 2.9
2024/02/04 09:30:00,23.3, 3.5
2024/02/04 09:40:00,23.1, 3.6
2024/02/04 09:50:00,22.8, 3.1
2024/02/04 10:00:00,22.5, 2.8
2024/02/04 10:10:00,22.5, 3.1
2024/02/04 10:20:00,22.2, 3.3
2024/02/04 10:30:00,22.1, 3.9
2024/02/04 10:40:00,21.8, 4.4
2024/02/04 10:50:00,21.4, 4.3
2024/02/04 11:00:00,21.2, 4.8
2024/02/04 11:10:00,21.1, 5.3
2024/02/04 11:20:00,20.8, 4.9
2024/02/04 11:30:00,20.7, 5.0
2024/02/04 11:40:00,20.8, 6.1
2024/02/04 11:50:00,20.6, 5.2
2024/02/04 12:00:00,20.4, 4.6
2024/02/04 12:10:00,20.4, 4.7
2024/02/04 12:20:00,20.5, 4.9
2024/02/04 12:30:00,20.7, 5.7
2024/02/04 12:40:00,20.6, 4.9
2024/02/04 12:50:00,20.5, 5.4
2024/02/04 13:00:00,20.6, 5.2
2024/02/04 13:10:00,20.5, 6.4
2024/02/04 13:20:00,20.4, 6.4
2024/02/04 13:30:00,20.3, 6.0
2024/02/04 13:40:00,20.3, 6.7
2024/02/04 13:50:00,20.2, 7.0
2024/02/04 14:00:00,19.9, 5.6
2024/02/04 14:10:00,19.5, 4.9
2024/02/04 14:20:00,19.7, 5.1
2024/02/04 14:30:00,19.5, 4.2
2024/02/04 14:40:00,19.2, 4.2
2024/02/04 14:50:00,19.5, 6.4
2024/02/04 15:00:00,19.4, 6.0
2024/02/04 15:10:00,19.3, 5.7
2024/02/04 15:20:00,19.3, 4.9
2024/02/04 15:30:00,19.3, 4.5
2024/02/04 15:40:00,19.2, 3.9
2024/02/04 15:50:00,19.2, 3.5
2024/02/04 16:00:00,19.0, 3.5
2024/02/04 16:10:00,19.0, 3.5
2024/02/04 16:20:00,19.0, 3.4
2024/02/04 16:30:00,18.9, 3.1
2024/02/04 16:40:00,18.9, 3.2
2024/02/04 16:50:00,18.9, 2.4
2024/02/04 17:00:00,18.7, 2.4
2024/02/04 17:10:00,18.7, 2.3
2024/02/04 17:20:00,18.7, 2.3
2024/02/04 17:30:00,18.7, 1.8
2024/02/04 17:40:00,18.5, 1.7
2024/02/04 17:50:00,18.6, 1.5
2024/02/04 18:00:00,18.5, 1.2
2024/02/04 18:10:00,18.5, 1.2
2024/02/04 18:20:00,18.5, 1.1
2024/02/04 18:30:00,18.5, 1.3
2024/02/04 18:40:00,18.5, 1.0
2024/02/04 18:50:00,18.4, 0.9
2024/02/04 19:00:00,18.3, 0.8
2024/02/04 19:10:00,18.3, 0.7
2024/02/04 19:20:00,18.3, 0.9
2024/02/04 19:30:00,18.3, 0.6
2024/02/04 19:40:00,18.3, 0.5
2024/02/04 19:50:00,18.3, 0.1
2024/02/04 20:00:00,18.3, 0.2
2024/02/04 20:10:00,18.3, 0.0
2024/02/04 20:20:00,18.3,-0.1
2024/02/04 20:30:00,18.2,-0.4
2024/02/04 20:40:00,18.2,-0.4
2024/02/04 20:50:00,18.2,-0.3
2024/02/04 21:00:00,18.2,-0.4
2024/02/04 21:10:00,18.3,-0.7
2024/02/04 21:20:00,18.3,-0.3
2024/02/04 21:30:00,18.3,-0.4
2024/02/04 21:40:00,18.4,-0.5
2024/02/04 21:50:00,18.4,-0.5
2024/02/04 22:00:00,18.3,-0.7
2024/02/04 22:10:00,18.3,-0.5
2024/02/04 22:20:00,18.2,-0.4
2024/02/04 22:30:00,18.3,-0.7
2024/02/04 22:40:00,18.2,-0.3
2024/02/04 22:50:00,18.1,-0.5
2024/02/04 23:00:00,18.2,-0.1
2024/02/04 23:10:00,18.3,-0.4
2024/02/04 23:20:00,18.2,-0.1
2024/02/04 23:30:00,18.2,-0.2
2024/02/04 23:40:00,18.1, 0.0
2024/02/04 23:50:00,18.1,-0.3
